Weather History for KROS - November, 2011

Change the Weather History Date:

Monday, November 14, 2011

  Actual Average (KCBG) Record (KCBG)
Temperature  
Mean Temperature 40 °F -  
Max Temperature 50 °F 37 °F 67 °F (1990)
Min Temperature 31 °F 21 °F -3 °F (1959)
Degree Days  
Heating Degree Days 24    
Moisture  
Dew Point 27 °F    
Average Humidity 64    
Maximum Humidity 85    
Minimum Humidity 41    
Precipitation  
Precipitation 0.00 in - - ()
Sea Level Pressure  
Sea Level Pressure 29.44 in    
Wind  
Wind Speed 7 mph (SW)    
Max Wind Speed 16 mph    
Max Gust Speed 26 mph    
Visibility 10 miles    
Events      
Averages and records for this station are not official NWS values.
T = Trace of Precipitation, MM = Missing Value Source: NWS Daily Summary

Daily Weather History Graph

Daily Weather History Graph

Search for Another Location

Airport or City:

Trip Planner

Search our weather history database for the weather conditions in past years. The results will help you decide how hot, cold, wet, or windy it might be!

Date:

Astronomy

Nov. 14, 2011 Rise Set
Actual Time 7:09 AM CST 4:42 PM CST
Civil Twilight 6:37 AM CST 5:14 PM CST
Nautical Twilight 6:01 AM CST 5:50 PM CST
Astronomical Twilight 5:26 AM CST 6:25 PM CST
Moon 7:46 PM CST (11/14) 10:32 AM CST (11/14)
Length of Visible Light 10h 36m
Length of Day
9h 32m
Waning Gibbous, 86% of the Moon is Illuminated
Nov 14
Waning Gibbous
Nov 18
Last Quarter
Nov 25
New
Dec 2
First Quarter
Dec 10
Full

Hourly Weather History & Observations

Time (CST) Temp. Windchill Dew Point Humidity Pressure Visibility Wind Dir Wind Speed Gust Speed Precip Events Conditions
12:14 AM 34.0 °F 28.8 °F 29.3 °F 83% 29.44 in 10.0 mi South 5.8 mph - N/A   Clear
12:34 AM 34.5 °F 29.4 °F 29.5 °F 82% 29.44 in 10.0 mi SSW 5.8 mph - N/A   Clear
12:54 AM 35.6 °F 30.7 °F 29.3 °F 78% 29.44 in 10.0 mi SSW 5.8 mph - N/A   Clear
1:14 AM 34.9 °F 29.9 °F 29.1 °F 79% 29.44 in 10.0 mi SSW 5.8 mph - N/A   Clear
1:34 AM 34.7 °F 30.6 °F 28.9 °F 79% 29.44 in 10.0 mi South 4.6 mph - N/A   Clear
1:54 AM 33.8 °F 29.6 °F 28.2 °F 80% 29.43 in 10.0 mi South 4.6 mph - N/A   Clear
2:14 AM 32.0 °F 26.4 °F 27.3 °F 83% 29.41 in 10.0 mi SSE 5.8 mph - N/A   Clear
2:34 AM 31.6 °F 28.3 °F 27.5 °F 85% 29.42 in 10.0 mi SSW 3.5 mph - N/A   Clear
2:54 AM 32.5 °F 27.1 °F 28.2 °F 84% 29.42 in 10.0 mi South 5.8 mph - N/A   Scattered Clouds
3:34 AM 31.5 °F 25.8 °F 27.3 °F 85% 29.41 in 10.0 mi South 5.8 mph - N/A   Mostly Cloudy
3:54 AM 32.9 °F 27.5 °F 28.8 °F 85% 29.40 in 10.0 mi South 5.8 mph - N/A   Overcast
4:14 AM 33.3 °F 27.9 °F 28.8 °F 84% 29.40 in 10.0 mi South 5.8 mph - N/A   Overcast
4:34 AM 33.3 °F 27.9 °F 28.8 °F 84% 29.40 in 10.0 mi South 5.8 mph - N/A   Overcast
4:54 AM 32.0 °F 25.6 °F 28.0 °F 85% 29.40 in 10.0 mi South 6.9 mph - N/A   Scattered Clouds
5:14 AM 32.9 °F 26.7 °F 28.4 °F 84% 29.40 in 10.0 mi South 6.9 mph - N/A   Clear
5:34 AM 33.3 °F 26.4 °F 28.4 °F 82% 29.39 in 10.0 mi South 8.1 mph - N/A   Scattered Clouds
6:14 AM 33.3 °F 26.4 °F 27.5 °F 79% 29.39 in 10.0 mi South 8.1 mph - N/A   Clear
6:34 AM 32.2 °F 26.7 °F 27.1 °F 82% 29.39 in 10.0 mi South 5.8 mph - N/A   Clear
6:54 AM 32.4 °F 26.9 °F 26.6 °F 79% 29.39 in 10.0 mi South 5.8 mph - N/A   Clear
7:34 AM 33.3 °F 27.9 °F 26.6 °F 77% 29.40 in 10.0 mi SSW 5.8 mph - N/A   Clear
7:54 AM 34.0 °F 27.2 °F 26.6 °F 74% 29.41 in 10.0 mi SSW 8.1 mph - N/A   Clear
8:34 AM 35.8 °F 29.4 °F 27.3 °F 71% 29.43 in 10.0 mi SSW 8.1 mph - N/A   Clear
8:54 AM 36.5 °F 29.7 °F 27.5 °F 70% 29.42 in 10.0 mi South 9.2 mph - N/A   Unknown
9:14 AM 37.2 °F 31.2 °F 27.9 °F 69% 29.43 in 10.0 mi SSW 8.1 mph - N/A   Scattered Clouds
9:34 AM 37.9 °F 32.1 °F 27.7 °F 67% 29.43 in 10.0 mi SSW 8.1 mph - N/A   Overcast
9:54 AM 38.5 °F 32.1 °F 27.9 °F 66% 29.42 in 10.0 mi SSW 9.2 mph - N/A   Overcast
10:54 AM 42.1 °F 37.1 °F 29.1 °F 60% 29.44 in 10.0 mi WSW 8.1 mph - N/A   Overcast
11:14 AM 41.9 °F 39.0 °F 29.1 °F 61% 29.41 in 10.0 mi SSW 4.6 mph - N/A   Overcast
11:34 AM 42.4 °F 38.1 °F 29.1 °F 59% 29.40 in 10.0 mi South 6.9 mph - N/A   Mostly Cloudy
11:54 AM 44.4 °F 39.0 °F 29.3 °F 55% 29.40 in 10.0 mi SSW 10.4 mph - N/A   Scattered Clouds
12:14 PM 45.0 °F 41.8 °F 29.5 °F 55% 29.39 in 10.0 mi SSW 5.8 mph - N/A   Clear
12:33 PM 46.8 °F - 29.1 °F 50% 29.39 in 10.0 mi SW 11.5 mph - N/A   Scattered Clouds
12:54 PM 47.3 °F - 28.9 °F 49% 29.39 in 10.0 mi SW 10.4 mph 18.4 mph N/A   Clear
1:14 PM 48.6 °F - 28.9 °F 47% 29.39 in 10.0 mi WSW 12.7 mph 21.9 mph N/A   Clear
1:34 PM 49.6 °F - 28.9 °F 45% 29.39 in 10.0 mi WSW 12.7 mph 17.3 mph N/A   Clear
1:54 PM 50.0 °F - 28.8 °F 44% 29.40 in 10.0 mi SW 12.7 mph 18.4 mph N/A   Clear
2:34 PM 49.1 °F - 27.1 °F 43% 29.42 in 10.0 mi WSW 12.7 mph 23.0 mph N/A   Clear
2:54 PM 48.9 °F - 28.0 °F 44% 29.42 in 10.0 mi WSW 16.1 mph 26.5 mph N/A   Clear
3:14 PM 48.4 °F - 28.2 °F 46% 29.43 in 10.0 mi WSW 10.4 mph 18.4 mph N/A   Clear
3:34 PM 48.4 °F - 28.4 °F 46% 29.44 in 10.0 mi WSW 10.4 mph 16.1 mph N/A   Scattered Clouds
3:54 PM 47.8 °F - 25.3 °F 41% 29.44 in 10.0 mi WSW 9.2 mph 19.6 mph N/A   Scattered Clouds
4:14 PM 46.8 °F - 25.3 °F 43% 29.45 in 10.0 mi WSW 11.5 mph 21.9 mph N/A   Scattered Clouds
4:34 PM 45.7 °F 40.6 °F 25.5 °F 45% 29.46 in 10.0 mi West 10.4 mph 18.4 mph N/A   Scattered Clouds
4:54 PM 44.4 °F 40.5 °F 25.5 °F 48% 29.46 in 10.0 mi WSW 6.9 mph - N/A   Scattered Clouds
5:14 PM 43.3 °F 39.9 °F 25.5 °F 49% 29.46 in 10.0 mi WSW 5.8 mph - N/A   Scattered Clouds
5:34 PM 42.3 °F 37.9 °F 25.2 °F 51% 29.46 in 10.0 mi WSW 6.9 mph - N/A   Scattered Clouds
5:53 PM 42.1 °F 38.4 °F 24.8 °F 50% 29.47 in 10.0 mi WSW 5.8 mph - N/A   Scattered Clouds
6:14 PM 41.0 °F 38.0 °F 24.8 °F 53% 29.48 in 10.0 mi SW 4.6 mph - N/A   Scattered Clouds
6:34 PM 41.4 °F 36.8 °F 23.9 °F 50% 29.49 in 10.0 mi WSW 6.9 mph - N/A   Scattered Clouds
6:54 PM 41.0 °F 37.1 °F 23.7 °F 50% 29.50 in 10.0 mi WSW 5.8 mph - N/A   Scattered Clouds
7:14 PM 42.3 °F 35.5 °F 23.9 °F 48% 29.51 in 10.0 mi West 12.7 mph 17.3 mph N/A   Clear
7:34 PM 42.4 °F 34.7 °F 24.4 °F 49% 29.51 in 10.0 mi West 16.1 mph 19.6 mph N/A   Clear
7:54 PM 41.7 °F 35.2 °F 25.7 °F 53% 29.53 in 10.0 mi West 11.5 mph 20.7 mph N/A   Clear
8:14 PM 41.0 °F 34.3 °F 26.4 °F 56% 29.55 in 10.0 mi West 11.5 mph - N/A   Clear
8:34 PM 39.6 °F 32.1 °F 26.8 °F 60% 29.56 in 10.0 mi West 12.7 mph 16.1 mph N/A   Clear
8:54 PM 37.9 °F 31.5 °F 26.8 °F 64% 29.58 in 10.0 mi West 9.2 mph - N/A   Clear
9:14 PM 36.7 °F 32.0 °F 27.1 °F 68% 29.58 in 10.0 mi WSW 5.8 mph - N/A   Clear
9:34 PM 35.2 °F 31.2 °F 26.8 °F 71% 29.58 in 10.0 mi West 4.6 mph - N/A   Clear
9:54 PM 33.4 °F 29.1 °F 27.0 °F 77% 29.59 in 10.0 mi WSW 4.6 mph - N/A   Clear
10:14 PM 34.0 °F 28.8 °F 27.3 °F 77% 29.59 in 10.0 mi WSW 5.8 mph - N/A   Clear
10:54 PM 31.3 °F - 25.9 °F 80% 29.59 in 10.0 mi Calm Calm - N/A   Clear
11:14 PM 29.8 °F 24.9 °F 25.3 °F 83% 29.58 in 10.0 mi SE 4.6 mph - N/A   Clear
11:34 PM 28.4 °F 23.3 °F 24.4 °F 85% 29.58 in 10.0 mi South 4.6 mph - N/A   Clear
11:54 PM 28.6 °F 24.8 °F 24.6 °F 85% 29.59 in 10.0 mi South 3.5 mph - N/A   Clear